FENGYUN 1C DEB, 30573

Orbit data source: Space-Track

FENGYUN 1C DEB, 30573 is space debris in SSO originally from a launch on Mon, 10 May 1999 UTC launched from the Taiyaun Space Center, China (TSC). Fengyun 1C debris stems from the Chinese weather satellite Fengyun-1C, which was intentionally destroyed by a Chinese anti-satellite missile in 2007. This event dramatically increased the amount of space debris, with thousands of trackable fragments posing hazards to satellites and human spaceflight. The Fengyun 1C debris cloud has become a focal point in discussions about space sustainability and the need for international regulations to prevent the creation of new debris.

Loading next visibility...
Identifier
30573, 1999-025ALP
Orbit
SSO
Country
Flag of CNCN / PRC
Related business
Manufacturer
Unknown
Mission
Spacecraft
Bus & Motor
Unknown
Mass
Unknown
Launch date (UTC)
1999-05-10 (27 years ago)
Launch vehicle
Unknown
Launch site
Taiyaun Space Center, China (TSC)
Object type
Payload
Rocket body
Debris
Shape & HBR
Unknown shape, 0.1 m
Radar Cross Section
Small (<0.1 m²)

Expand to show TLE details & history
Last TLE update: 11 hours ago

TLE from 11 hours ago
0 FENGYUN 1C DEB
1 30573U 99025ALP 26208.12548644  .00002523  00000-0  12748-2 0  9991
2 30573  99.2117 258.1463 0086608 358.6972  27.2387 14.15234824993987
Epoch: 2026-07-27T03:00Z
TLE epoch observation values (Epoch: 2026-07-27T03:00:42.028Z)
Latitude
26.06356°
Longitude
-96.36759°
Altitude
789.164 km
Speed
7.49 km/s
True Right ascension
16h 54m 29s
True Declination
25° 55' 43"
Sunlit
Object was in daylight at epoch
Visualization orbit readout
Latitude
Unknown
Longitude
Unknown
Altitude
Unknown
Speed
Unknown
Apparent Right ascension
Unknown
Apparent Declination
Unknown
Sunlit
N/A
Visualization observer readout
Local Sidereal Time
03:40:08
Azimuth
Unknown
Elevation
Unknown
Doppler factor
Unknown
Orbital elements
Apogee altitude
901.206 km
Perigee altitude
776.199 km
Semi-major axis
7,216.84 km
Eccentricity
0.00866
Inclination
99.2117°
RAAN
258.1463°
Arg. of periapsis
358.6972°
True anomaly
27.69735°
Mean anomaly
27.2387°
Eccentric anomaly
27.46758°
Mean motion
3.54016 °/min
Orbital period
101.69 mins
BSTAR
0.0012748
Loading maneuver chart data...
Computing Atmospheric mass density...
Loading historical data...
Loading historical data...
Loading historical data...
Loading historical data...
Loading historical data...
Loading historical data...
Loading historical data...

Documentation

Showing up to 5 results
|